Wind_Speed
8 5 2 5 3 4 4 7 3 7 3 5 9 6 3 2 2 2 12 14 9 18 21 19 19 16 16 16 16 14 13 12 11 9 6 5 4 3 0 3 8 13 13 11 12 11 9 7 5
8 5 3 2 4 1 5 9 12 7 4 7 8 6 3 2 6 14 14 12 14 18 22 20 20 17 16 16 15 14 12 12 12 11 8 8 5 2 1 6 8 11 12 10 9 10 9 6 4
9 5 1 4 4 6 5 4 9 4 9 7 4 7 2 3 9 21 11 16 13 19 21 20 18 16 15 15 15 13 11 12 15 16 14 10 4 4 7 8 9 9 9 8 7 5 8 5 4
8 5 4 2 8 8 11 7 7 2 6 4 2 3 7 7 9 13 20 15 16 15 18 20 18 16 15 15 13 12 11 13 17 18 14 9 6 9 9 9 10 10 9 8 7 5 4 3 3
8 3 2 4 9 7 8 12 19 3 4 5 4 2 6 6 8 15 23 16 16 14 15 18 16 16 14 13 11 10 11 15 16 16 13 10 10 10 9 10 10 10 10 10 9 8 7 7 7
4 3 2 9 6 6 10 24 16 4 4 1 3 1 4 10 10 19 25 19 15 13 15 15 15 15 14 12 10 10 11 14 16 14 11 13 13 11 10 10 10 10 9 9 8 8 7 8 8
6 3 6 4 5 6 11 25 9 10 5 6 5 3 10 14 10 18 25 20 17 16 15 14 15 15 14 12 11 10 10 12 15 14 13 15 12 10 8 7 7 8 7 7 7 7 8 7 7
8 4 4 6 8 7 12 9 14 16 10 9 2 3 6 16 13 16 22 21 20 18 16 14 20 19 18 16 13 11 10 11 13 14 13 12 10 8 8 7 6 5 5 6 6 7 7 6 5
14 2 5 7 7 5 22 4 7 3 8 6 3 8 20 14 16 18 22 21 20 19 17 14 18 20 19 16 15 13 11 11 12 12 14 13 11 9 8 10 7 5 5 5 6 6 6 6 6
7 6 6 4 8 5 9 5 8 4 4 2 5 13 18 15 20 20 23 25 22 21 18 16 14 17 19 18 16 15 13 12 11 12 14 12 13 9 9 9 8 5 5 5 4 5 6 5 5
5 5 5 15 20 7 5 8 8 5 1 10 9 11 12 16 18 21 22 24 27 22 19 19 16 14 13 18 17 16 15 14 13 12 14 15 14 11 9 7 8 6 6 6 5 6 5 3 2
5 7 19 19 26 11 3 8 8 4 5 11 10 11 12 20 20 24 21 22 23 24 24 24 20 18 16 16 17 15 16 16 16 14 16 19 15 12 11 9 8 7 8 7 6 6 4 5 6
6 6 20 20 20 10 9 6 7 14 16 13 18 15 11 11 13 18 21 22 24 26 24 27 26 23 22 19 19 18 15 17 16 16 14 19 17 15 13 13 10 10 9 9 8 8 9 6 5
7 6 5 9 15 13 8 8 8 4 19 25 25 28 22 17 17 21 19 20 24 24 28 26 29 28 26 24 24 21 16 13 16 15 12 17 17 16 16 16 12 12 12 12 14 15 10 7 7
4 2 6 8 11 6 12 7 8 22 26 29 33 32 35 30 26 24 27 22 18 23 25 32 29 27 32 30 29 25 19 16 18 18 16 16 18 18 18 16 16 16 18 17 16 12 10 9 8
3 3 1 7 11 14 12 13 5 20 21 28 37 38 40 38 31 32 30 31 26 22 27 32 33 30 31 34 33 27 23 22 22 22 21 18 20 18 21 21 18 19 20 18 15 12 11 10 8
1 3 6 7 10 6 12 3 14 23 27 18 29 34 38 40 41 37 32 35 38 34 28 28 35 33 29 32 34 34 28 26 26 27 24 20 24 24 23 20 18 20 18 15 15 13 12 10 7
5 4 3 6 5 5 6 8 8 20 21 25 26 24 25 31 37 35 36 36 34 37 38 32 34 36 35 31 31 32 32 30 29 26 25 25 25 28 27 23 22 21 18 15 14 14 12 10 7
5 4 4 5 6 3 8 10 10 18 23 24 27 31 37 37 34 26 26 25 35 38 37 39 35 34 40 40 35 32 34 35 33 31 29 29 28 25 30 28 27 24 19 16 14 15 13 10 8
6 4 5 7 4 5 12 20 17 18 22 28 34 30 37 40 42 39 35 31 29 28 35 37 39 38 36 40 36 34 36 37 35 32 32 30 31 32 29 31 29 26 23 19 16 16 15 12 8
2 2 3 5 7 5 9 10 8 8 21 30 34 36 34 40 39 36 36 35 35 33 30 35 32 26 39 41 40 40 39 38 37 35 34 35 34 33 32 33 31 29 24 20 17 17 15 12 9
1 4 2 3 4 3 6 7 6 9 9 6 21 28 34 37 39 37 34 34 35 35 37 31 35 36 27 40 41 43 44 43 42 40 40 39 38 38 36 35 33 30 25 22 19 18 16 12 9
3 5 5 4 4 5 3 3 8 7 5 8 6 19 26 25 25 24 26 25 21 28 34 32 36 36 36 34 40 44 47 44 44 43 41 42 40 40 36 33 34 31 27 23 21 19 16 12 9
6 5 4 3 3 3 8 7 5 3 4 1 1 9 6 18 12 7 6 12 12 14 19 28 31 29 42 37 38 47 47 47 45 46 43 42 43 39 34 34 35 32 28 24 21 19 15 12 10
5 5 3 0 2 6 2 4 7 9 11 9 8 14 7 4 5 6 10 11 9 9 10 17 25 27 30 40 45 44 45 47 45 45 45 43 44 40 35 35 36 31 26 23 21 19 15 12 10
4 5 4 4 3 4 5 7 6 11 17 15 10 4 5 10 14 9 10 9 9 13 14 16 20 27 27 33 44 42 45 46 45 42 44 44 42 38 33 33 33 29 27 22 21 17 14 11 10
3 3 5 1 2 3 5 7 9 7 8 9 9 13 18 16 12 10 9 10 9 10 14 21 22 25 25 30 38 44 44 41 39 38 40 40 37 35 30 32 32 29 24 22 19 16 13 10 9
5 5 2 2 2 5 6 5 8 4 5 7 9 15 23 18 7 9 8 7 9 14 18 20 22 24 25 30 36 41 40 37 35 36 34 32 34 34 33 33 32 26 24 21 19 15 11 9 9
3 3 3 2 4 4 4 5 5 6 1 4 4 11 19 27 21 9 8 10 12 16 17 19 18 23 26 31 36 36 33 31 32 31 28 30 35 37 35 32 27 25 23 19 13 10 8 8 9
5 5 5 4 4 4 3 6 9 12 6 18 24 32 25 23 21 13 7 9 12 19 18 15 17 25 29 30 32 31 30 30 32 28 28 33 36 34 33 28 24 23 20 14 9 10 8 9 10
Wind_Direction
246 236 261 333 53 72 248 254 244 291 37 41 37 55 153 277 117 198 146 180 227 172 165 156 147 145 151 158 163 166 170 174 172 181 185 195 192 164 103 89 143 148 141 128 120 121 131 143 141
235 222 246 256 116 153 264 245 273 258 121 47 19 345 31 89 107 145 167 173 189 180 166 158 152 149 148 153 156 161 166 172 174 169 166 167 160 180 78 109 128 158 165 163 162 153 158 168 183
210 208 235 152 175 200 232 213 335 177 87 93 21 299 338 87 124 146 194 181 180 178 167 161 157 153 150 147 147 151 156 162 161 156 176 180 182 130 115 115 119 141 163 174 173 169 185 185 213
184 182 241 146 226 242 230 267 290 77 92 90 51 295 95 139 154 157 169 189 174 173 173 167 163 158 158 157 152 147 147 151 161 169 177 176 146 126 118 112 107 115 129 140 151 153 139 144 125
180 235 201 219 245 257 250 252 283 152 123 164 239 327 96 101 170 152 163 178 190 175 177 175 170 168 165 163 155 144 143 149 156 163 165 168 151 137 124 114 112 110 110 111 116 120 119 111 109
191 211 155 227 240 247 267 261 249 197 144 226 160 23 139 153 180 152 158 176 203 189 176 176 180 176 174 168 160 151 147 156 154 161 167 163 157 148 132 119 118 118 118 116 117 117 113 106 101
185 119 216 220 233 262 251 271 190 183 189 251 275 115 137 157 172 153 160 177 191 202 193 199 194 186 179 173 170 162 154 160 169 172 164 162 164 162 152 133 121 119 117 114 115 113 108 104 101
204 149 216 224 238 269 272 308 257 174 192 199 286 161 153 162 166 154 164 180 192 201 212 222 201 193 184 178 178 175 167 166 174 178 172 165 168 172 166 170 146 121 118 117 120 118 112 103 96
217 184 212 219 234 252 292 340 302 144 165 136 118 129 156 160 161 162 172 177 197 209 219 213 206 199 191 188 185 183 182 179 180 177 174 173 174 174 186 182 170 139 133 128 127 122 121 121 104
186 200 230 222 238 271 276 6 318 176 176 223 213 139 157 166 169 177 186 182 194 209 218 216 209 207 202 200 198 195 193 194 191 182 177 173 176 168 169 174 172 171 164 146 141 139 146 143 133
197 190 223 270 264 292 299 308 337 7 70 228 226 195 197 199 194 193 198 202 201 204 222 222 221 212 212 214 205 205 205 202 199 191 186 179 188 181 190 189 198 195 179 163 154 164 155 158 214
240 227 238 260 267 283 277 306 326 315 269 309 278 260 294 212 200 198 203 212 210 209 208 218 227 221 222 228 210 223 222 215 205 195 186 188 195 193 217 219 207 193 172 171 176 182 195 231 217
221 246 253 256 272 288 278 275 269 280 273 264 270 277 278 251 211 204 210 216 220 218 214 206 211 223 225 230 218 225 230 225 206 195 187 191 201 201 224 208 192 186 189 185 203 220 247 231 251
200 221 267 284 303 320 266 257 263 260 263 266 268 267 260 252 245 233 219 219 223 224 221 214 208 213 222 227 227 232 227 213 202 204 206 201 211 209 213 196 192 199 197 199 219 243 245 241 251
98 44 336 301 289 264 311 273 230 251 262 262 262 259 264 260 248 246 238 230 223 229 224 218 215 214 214 221 229 232 218 211 205 203 218 221 207 205 198 198 207 209 211 224 233 235 238 244 247
79 60 330 247 239 242 197 255 241 249 249 251 257 256 256 260 253 247 239 242 231 228 237 223 220 221 219 217 226 228 220 212 214 216 216 221 209 203 201 209 213 219 226 234 233 232 236 236 245
229 225 222 297 248 209 185 239 239 250 250 265 250 251 251 252 252 253 247 242 238 231 231 236 226 225 225 224 220 223 214 211 218 221 216 219 212 212 213 216 213 216 224 230 231 232 230 230 243
195 226 246 239 288 201 232 250 261 268 272 272 271 263 248 249 249 248 244 243 243 239 235 240 232 228 226 224 222 217 214 211 218 223 223 219 220 214 218 221 217 220 222 225 227 223 223 230 243
269 303 279 274 296 280 249 261 255 261 260 263 265 261 259 255 250 244 243 246 242 240 242 242 240 233 224 217 215 216 212 210 215 220 221 223 224 221 219 220 220 223 225 228 223 218 218 228 242
267 267 293 294 341 5 313 295 283 260 256 244 250 249 251 254 254 254 254 252 251 245 238 239 239 239 224 216 218 224 222 213 215 218 218 226 232 226 227 222 221 222 223 227 227 217 217 226 241
348 306 288 270 334 350 349 293 266 278 249 247 247 248 248 251 252 252 251 250 251 252 247 242 238 238 226 220 217 221 222 222 220 217 220 222 228 235 233 224 221 223 225 230 229 223 221 226 236
101 6 72 30 45 260 69 292 291 275 279 252 241 241 242 245 247 250 252 253 252 255 251 249 249 244 236 231 228 227 219 216 221 218 217 220 226 231 230 223 220 222 223 225 225 223 225 229 243
168 94 66 38 26 6 277 221 279 259 274 267 278 250 243 245 241 243 246 246 254 253 244 245 246 248 245 239 231 226 223 221 222 220 223 224 228 228 231 228 220 219 222 221 221 223 225 232 245
124 65 45 61 75 295 228 182 281 240 210 122 280 33 243 243 229 221 225 237 236 245 247 247 250 249 241 243 241 228 222 221 219 222 227 227 229 225 223 226 217 217 221 219 220 222 226 236 250
89 78 9 248 223 235 103 211 250 275 284 267 285 284 213 205 178 296 263 235 248 264 263 268 261 255 247 237 239 231 227 223 225 225 229 229 224 219 217 222 216 216 217 215 216 220 225 236 251
161 140 158 221 228 283 295 226 254 234 263 298 254 286 268 229 251 266 253 258 251 256 267 266 261 259 253 237 237 234 226 222 223 228 234 227 224 220 216 222 214 210 211 212 212 218 227 239 252
190 187 170 322 315 43 252 294 307 335 41 48 46 17 359 353 300 254 211 234 264 278 275 273 258 257 256 240 229 224 219 220 226 235 231 228 222 216 220 215 208 208 209 207 212 219 230 243 265
146 158 85 8 298 278 282 266 240 351 348 15 12 5 353 344 283 204 244 270 300 292 284 288 254 244 245 229 220 221 215 217 227 232 228 224 218 210 210 203 203 203 201 204 211 219 228 249 270
176 182 212 106 175 216 290 263 241 195 109 30 329 317 316 317 285 286 282 294 304 308 297 278 253 236 230 219 219 221 212 220 229 227 220 213 208 206 201 200 196 197 196 199 206 222 238 259 281
173 190 189 142 255 245 192 261 276 279 37 333 322 318 301 291 282 316 301 307 313 315 302 268 250 224 222 218 219 216 214 223 220 212 209 204 202 199 198 195 188 188 190 198 214 239 259 273 285
Height
1522 1522 1523 1523 1534 1534 1536 1520 1506 1504 1496 1498 1496 1497 1501 1500 1501 1516 1508 1508 1510 1512 1514 1516 1518 1520 1521 1523 1525 1527 1528 1530 1532 1533 1534 1536 1536 1536 1536 1536 1536 1538 1539 1540 1540 1541 1543 1544 1544
1520 1521 1522 1522 1537 1543 1535 1507 1511 1503 1495 1495 1496 1497 1498 1502 1501 1505 1506 1509 1511 1512 1513 1516 1518 1520 1522 1523 1525 1526 1528 1529 1530 1533 1533 1534 1536 1536 1535 1535 1536 1537 1539 1540 1541 1542 1543 1543 1544
1518 1520 1522 1524 1533 1537 1528 1502 1502 1498 1495 1494 1497 1498 1499 1503 1503 1504 1506 1507 1511 1512 1514 1516 1518 1520 1521 1523 1525 1526 1527 1528 1529 1531 1532 1533 1534 1535 1536 1536 1536 1537 1538 1539 1540 1542 1542 1543 1544
1516 1519 1521 1524 1526 1514 1508 1499 1502 1495 1496 1496 1498 1499 1500 1501 1502 1504 1505 1506 1510 1512 1514 1515 1517 1520 1521 1522 1524 1525 1525 1527 1528 1530 1532 1533 1534 1534 1535 1536 1536 1537 1538 1539 1539 1541 1542 1542 1543
1514 1516 1522 1524 1518 1508 1501 1501 1502 1496 1496 1497 1498 1500 1502 1503 1503 1503 1505 1507 1508 1512 1514 1515 1517 1519 1520 1522 1523 1524 1525 1526 1527 1529 1531 1532 1534 1535 1536 1536 1537 1537 1538 1539 1539 1541 1542 1543 1543
1512 1513 1524 1522 1514 1505 1498 1496 1498 1495 1494 1497 1499 1499 1502 1503 1503 1502 1506 1507 1508 1510 1513 1515 1516 1518 1520 1521 1522 1524 1524 1526 1527 1529 1530 1531 1533 1534 1536 1536 1537 1538 1539 1540 1540 1541 1542 1542 1543
1508 1513 1517 1511 1512 1505 1496 1492 1495 1492 1493 1495 1498 1499 1504 1504 1505 1505 1505 1508 1509 1510 1512 1514 1515 1517 1520 1521 1522 1523 1524 1525 1526 1528 1529 1531 1534 1534 1535 1537 1537 1537 1539 1540 1540 1541 1542 1543 1543
1505 1508 1508 1509 1507 1505 1491 1493 1490 1486 1490 1493 1496 1498 1503 1503 1505 1506 1507 1507 1509 1510 1512 1513 1514 1515 1517 1519 1521 1523 1523 1525 1526 1527 1529 1531 1533 1534 1535 1536 1537 1538 1538 1540 1541 1541 1542 1543 1544
1502 1509 1511 1504 1502 1498 1489 1492 1492 1488 1489 1490 1495 1498 1498 1501 1504 1507 1508 1506 1507 1509 1510 1512 1513 1515 1516 1518 1519 1521 1522 1524 1525 1526 1528 1530 1532 1534 1534 1535 1536 1537 1539 1539 1541 1541 1541 1542 1543
1498 1503 1502 1494 1494 1495 1493 1492 1491 1487 1488 1489 1494 1497 1498 1499 1502 1504 1506 1506 1505 1506 1507 1510 1512 1512 1514 1516 1518 1519 1521 1523 1524 1526 1528 1530 1531 1532 1534 1535 1536 1537 1538 1538 1540 1541 1541 1541 1542
1492 1498 1494 1494 1493 1495 1493 1490 1490 1490 1490 1489 1491 1496 1498 1497 1498 1500 1503 1504 1504 1506 1506 1506 1509 1511 1512 1513 1516 1517 1519 1521 1522 1524 1527 1528 1529 1531 1534 1535 1535 1537 1537 1537 1538 1539 1540 1541 1541
1493 1490 1492 1492 1491 1493 1492 1490 1488 1488 1488 1489 1492 1492 1495 1496 1494 1496 1498 1501 1502 1502 1504 1505 1506 1508 1509 1511 1513 1515 1517 1519 1520 1522 1524 1525 1527 1529 1532 1533 1534 1536 1537 1537 1537 1538 1539 1540 1541
1489 1489 1489 1490 1488 1489 1488 1488 1487 1483 1484 1485 1484 1487 1491 1494 1494 1494 1496 1498 1498 1498 1499 1502 1504 1505 1506 1507 1510 1512 1513 1515 1517 1520 1522 1523 1525 1526 1529 1531 1532 1534 1534 1536 1537 1537 1538 1539 1539
1483 1486 1487 1486 1485 1486 1486 1484 1486 1482 1481 1481 1483 1482 1486 1490 1490 1491 1491 1492 1494 1495 1495 1497 1498 1501 1503 1504 1506 1508 1511 1511 1513 1515 1518 1521 1522 1525 1527 1528 1529 1530 1531 1533 1535 1536 1537 1538 1537
1482 1486 1486 1485 1483 1484 1485 1482 1480 1480 1479 1479 1479 1479 1477 1482 1485 1486 1486 1486 1488 1490 1492 1492 1493 1496 1498 1501 1503 1505 1507 1509 1510 1511 1515 1518 1520 1523 1524 1526 1528 1530 1530 1532 1533 1534 1534 1535 1535
1483 1486 1495 1482 1479 1479 1484 1479 1474 1474 1474 1475 1474 1473 1474 1472 1477 1480 1481 1481 1482 1485 1487 1488 1488 1490 1493 1495 1499 1500 1504 1506 1507 1509 1512 1515 1517 1519 1521 1523 1526 1527 1529 1530 1530 1531 1531 1532 1532
1485 1496 1493 1485 1472 1474 1477 1475 1468 1469 1469 1469 1467 1466 1467 1467 1468 1471 1473 1475 1477 1479 1481 1483 1484 1485 1487 1491 1494 1496 1499 1502 1505 1507 1509 1511 1513 1515 1518 1520 1523 1523 1525 1526 1527 1528 1529 1529 1530
1488 1491 1486 1486 1473 1471 1470 1471 1465 1464 1463 1462 1461 1461 1461 1461 1461 1462 1465 1467 1470 1472 1475 1478 1479 1480 1482 1486 1489 1493 1495 1499 1502 1503 1506 1508 1508 1511 1514 1518 1520 1520 1521 1522 1523 1525 1526 1527 1527
1481 1483 1485 1480 1474 1473 1471 1468 1465 1460 1458 1456 1453 1453 1452 1452 1454 1456 1459 1461 1463 1466 1468 1472 1474 1474 1476 1479 1483 1485 1488 1492 1495 1497 1501 1503 1505 1507 1510 1512 1514 1516 1518 1519 1519 1521 1523 1524 1525
1482 1483 1484 1476 1470 1473 1470 1459 1455 1452 1445 1447 1443 1444 1443 1445 1448 1450 1453 1455 1456 1459 1462 1465 1467 1469 1470 1473 1476 1479 1483 1486 1490 1493 1496 1499 1500 1502 1506 1508 1511 1513 1514 1515 1516 1517 1519 1520 1521
1481 1483 1484 1485 1476 1472 1471 1458 1449 1438 1432 1433 1434 1434 1436 1437 1440 1442 1444 1447 1450 1452 1455 1458 1461 1464 1466 1466 1469 1470 1476 1482 1485 1488 1490 1493 1495 1498 1501 1503 1506 1509 1510 1512 1514 1515 1516 1517 1518
1484 1481 1481 1482 1487 1493 1483 1487 1457 1439 1433 1429 1425 1426 1427 1429 1432 1435 1437 1439 1442 1444 1448 1450 1453 1456 1459 1462 1462 1462 1465 1470 1475 1479 1482 1485 1490 1492 1495 1498 1501 1505 1507 1509 1510 1512 1513 1514 1515
1482 1480 1483 1485 1491 1495 1488 1494 1459 1443 1433 1427 1424 1423 1423 1424 1426 1429 1431 1433 1435 1437 1440 1443 1446 1448 1451 1453 1455 1457 1459 1463 1468 1474 1477 1480 1483 1485 1490 1493 1498 1501 1503 1505 1507 1508 1509 1511 1511
1479 1482 1485 1488 1497 1508 1482 1483 1462 1442 1429 1424 1422 1421 1422 1423 1425 1425 1427 1429 1430 1432 1433 1436 1438 1439 1443 1445 1446 1448 1451 1456 1460 1466 1471 1474 1476 1479 1483 1488 1492 1496 1498 1501 1503 1505 1506 1507 1507
1480 1489 1519 1493 1498 1503 1473 1479 1456 1433 1424 1423 1421 1419 1419 1420 1422 1424 1425 1426 1427 1428 1429 1431 1432 1433 1436 1438 1438 1441 1446 1449 1454 1461 1465 1468 1470 1473 1476 1482 1486 1490 1495 1497 1500 1501 1502 1503 1504
1482 1488 1510 1497 1496 1491 1472 1470 1442 1423 1420 1421 1419 1420 1420 1419 1419 1421 1422 1421 1421 1422 1424 1426 1427 1426 1428 1429 1431 1435 1439 1444 1450 1456 1461 1463 1465 1469 1472 1477 1483 1487 1490 1494 1497 1498 1499 1500 1501
1484 1490 1489 1492 1498 1521 1480 1453 1432 1420 1422 1423 1424 1422 1421 1419 1418 1418 1417 1417 1418 1419 1421 1421 1420 1420 1421 1422 1424 1427 1432 1440 1447 1451 1455 1459 1463 1467 1470 1474 1478 1483 1487 1490 1493 1494 1496 1497 1498
1480 1482 1502 1513 1527 1501 1474 1459 1440 1426 1424 1423 1422 1422 1422 1421 1417 1414 1414 1413 1414 1415 1414 1413 1414 1413 1415 1416 1419 1422 1427 1436 1442 1446 1449 1454 1460 1464 1465 1469 1475 1479 1484 1487 1490 1491 1492 1492 1494
1481 1481 1482 1489 1497 1503 1483 1458 1429 1426 1424 1424 1425 1425 1423 1423 1420 1415 1411 1410 1410 1410 1410 1408 1407 1409 1410 1411 1415 1421 1426 1433 1437 1441 1445 1450 1456 1459 1462 1467 1472 1477 1481 1485 1487 1490 1489 1489 1489
1475 1478 1481 1507 1493 1489 1492 1451 1424 1422 1424 1424 1421 1418 1414 1415 1415 1411 1408 1407 1407 1406 1404 1402 1403 1404 1404 1409 1414 1418 1423 1428 1432 1437 1442 1446 1451 1456 1460 1464 1471 1476 1479 1481 1482 1487 1486 1486 1485